Location: Le Gr�zie
(43.6000°N, 13.5000°E)
Time: 22:52:45
(UTC+00:00)

Tianhe-1 - Visible Passes

Search period start: 20 June 2021 00:00
Search period end: 30 June 2021 00:00
Orbit: 375 x 386 km, 41.5° (Epoch: 20 June)

Date Brightness Start Highest point End Pass type
(mag) Time Alt. Az. Time Alt. Az. Time Alt. Az.
21 Jun 2.8 01:51:16 17° S 01:52:00 19° SSE 01:54:19 10° ESE visible
22 Jun 1.8 02:25:02 14° SW 02:27:28 38° SSE 02:30:27 10° E visible
23 Jun 2.3 01:26:41 27° SSE 01:26:41 27° SSE 01:29:21 10° E visible
24 Jun 1.4 02:00:26 22° SW 02:02:10 48° S 02:05:13 10° E visible
25 Jun 2.2 01:02:05 30° SE 01:02:05 30° SE 01:04:12 10° E visible
25 Jun 1.1 02:34:42 10° W 02:37:48 58° S 02:40:55 10° E visible
26 Jun 1.1 01:35:53 36° SW 01:36:51 56° S 01:39:57 10° E visible
27 Jun 3.0 00:37:39 22° ESE 00:37:39 22° ESE 00:38:57 10° E visible
27 Jun 1.2 02:09:46 12° W 02:12:30 54° S 02:15:35 10° ESE visible
28 Jun 1.1 01:11:40 58° SSE 01:11:40 58° SSE 01:14:38 10° E visible
28 Jun 1.8 02:45:11 10° W 02:48:04 33° SSW 02:50:57 10° SE visible
29 Jun 1.3 01:45:55 28° WSW 01:47:09 45° SSW 01:50:10 10° ESE visible
